Office,Dumfries
Station Name,Airyhemming
Location Code,133141
Parameter,River Stage(SG)
Timeseries,SG.15m.Cmd
Copyright SEPA 2018. This SEPA Data is licensed under the Open Government Licence 3.0., http://www.nationalarchives.gov.uk/doc/open-government-licence/version/3
Date/Time,SG(m)
20/12/2020 00:30:00,0.799
20/12/2020 00:45:00,0.798
20/12/2020 01:00:00,0.792
20/12/2020 01:15:00,0.792
20/12/2020 01:30:00,0.786
20/12/2020 01:45:00,0.784
20/12/2020 02:00:00,0.78
20/12/2020 02:15:00,0.778
20/12/2020 02:30:00,0.775
20/12/2020 02:45:00,0.77
20/12/2020 03:00:00,0.769
20/12/2020 03:15:00,0.763
20/12/2020 03:30:00,0.761
20/12/2020 03:45:00,0.755
20/12/2020 04:00:00,0.754
20/12/2020 04:15:00,0.753
20/12/2020 04:30:00,0.747
20/12/2020 04:45:00,0.744
20/12/2020 05:00:00,0.74
20/12/2020 05:15:00,0.739
20/12/2020 05:30:00,0.735
20/12/2020 05:45:00,0.732
20/12/2020 06:00:00,0.731
20/12/2020 06:15:00,0.726
20/12/2020 06:30:00,0.726
20/12/2020 06:45:00,0.723
20/12/2020 07:00:00,0.72
20/12/2020 07:15:00,0.716
20/12/2020 07:30:00,0.713
20/12/2020 07:45:00,0.707
20/12/2020 08:00:00,0.705
20/12/2020 08:15:00,0.704
20/12/2020 08:30:00,0.701
20/12/2020 08:45:00,0.699
20/12/2020 09:00:00,0.697
20/12/2020 09:15:00,0.694
20/12/2020 09:30:00,0.691
20/12/2020 09:45:00,0.688
20/12/2020 10:00:00,0.685
20/12/2020 10:15:00,0.681
20/12/2020 10:30:00,0.679
20/12/2020 10:45:00,0.675
20/12/2020 11:00:00,0.675
20/12/2020 11:15:00,0.672
20/12/2020 11:30:00,0.669
20/12/2020 11:45:00,0.668
20/12/2020 12:00:00,0.667
20/12/2020 12:15:00,0.665
20/12/2020 12:30:00,0.662
20/12/2020 12:45:00,0.662
20/12/2020 13:00:00,0.659
20/12/2020 13:15:00,0.658
20/12/2020 13:30:00,0.657
20/12/2020 13:45:00,0.655
20/12/2020 14:00:00,0.655
20/12/2020 14:15:00,0.654
20/12/2020 14:30:00,0.652
20/12/2020 14:45:00,0.651
20/12/2020 15:00:00,0.649
20/12/2020 15:15:00,0.646
20/12/2020 15:30:00,0.645
20/12/2020 15:45:00,0.642
20/12/2020 16:00:00,0.642
20/12/2020 16:15:00,0.641
20/12/2020 16:30:00,0.638
20/12/2020 16:45:00,0.637
20/12/2020 17:00:00,0.636
20/12/2020 17:15:00,0.635
20/12/2020 17:30:00,0.631
20/12/2020 17:45:00,0.629
20/12/2020 18:00:00,0.626
20/12/2020 18:15:00,0.626
20/12/2020 18:30:00,0.627
20/12/2020 18:45:00,0.628
20/12/2020 19:00:00,0.626
20/12/2020 19:15:00,0.625
20/12/2020 19:30:00,0.624
20/12/2020 19:45:00,0.623
20/12/2020 20:00:00,0.622
20/12/2020 20:15:00,0.62
20/12/2020 20:30:00,0.618
20/12/2020 20:45:00,0.616
20/12/2020 21:00:00,0.613
20/12/2020 21:15:00,0.613
20/12/2020 21:30:00,0.612
20/12/2020 21:45:00,0.613
20/12/2020 22:00:00,0.612
20/12/2020 22:15:00,0.61
20/12/2020 22:30:00,0.61
20/12/2020 22:45:00,0.61
20/12/2020 23:00:00,0.61
20/12/2020 23:15:00,0.61
20/12/2020 23:30:00,0.61
20/12/2020 23:45:00,0.61
21/12/2020 00:00:00,0.61
21/12/2020 00:15:00,0.61
21/12/2020 00:30:00,0.61
21/12/2020 00:45:00,0.61
21/12/2020 01:00:00,0.608
21/12/2020 01:15:00,0.608
21/12/2020 01:30:00,0.608
21/12/2020 01:45:00,0.606
21/12/2020 02:00:00,0.604
21/12/2020 02:15:00,0.603
21/12/2020 02:30:00,0.603
21/12/2020 02:45:00,0.603
21/12/2020 03:00:00,0.602
21/12/2020 03:15:00,0.6
21/12/2020 03:30:00,0.599
21/12/2020 03:45:00,0.597
21/12/2020 04:00:00,0.596
21/12/2020 04:15:00,0.595
21/12/2020 04:30:00,0.595
21/12/2020 04:45:00,0.594
21/12/2020 05:00:00,0.593
21/12/2020 05:15:00,0.593
21/12/2020 05:30:00,0.593
21/12/2020 05:45:00,0.592
21/12/2020 06:00:00,0.592
21/12/2020 06:15:00,0.592
21/12/2020 06:30:00,0.59
21/12/2020 06:45:00,0.59
21/12/2020 07:00:00,0.589
21/12/2020 07:15:00,0.589
21/12/2020 07:30:00,0.587
21/12/2020 07:45:00,0.588
21/12/2020 08:00:00,0.587
21/12/2020 08:15:00,0.587
21/12/2020 08:30:00,0.587
21/12/2020 08:45:00,0.586
21/12/2020 09:00:00,0.586
21/12/2020 09:15:00,0.585
21/12/2020 09:30:00,0.584
21/12/2020 09:45:00,0.583
21/12/2020 10:00:00,0.582
21/12/2020 10:15:00,0.582
21/12/2020 10:30:00,0.583
21/12/2020 10:45:00,0.581
21/12/2020 11:00:00,0.581
21/12/2020 11:15:00,0.582
21/12/2020 11:30:00,0.58
21/12/2020 11:45:00,0.58
21/12/2020 12:00:00,0.581
21/12/2020 12:15:00,0.581
21/12/2020 12:30:00,0.581
21/12/2020 12:45:00,0.581
21/12/2020 13:00:00,0.58
21/12/2020 13:15:00,0.58
21/12/2020 13:30:00,0.58
21/12/2020 13:45:00,0.579
21/12/2020 14:00:00,0.579
21/12/2020 14:15:00,0.579
21/12/2020 14:30:00,0.578
21/12/2020 14:45:00,0.578
21/12/2020 15:00:00,0.579
21/12/2020 15:15:00,0.579
21/12/2020 15:30:00,0.578
21/12/2020 15:45:00,0.579
21/12/2020 16:00:00,0.578
21/12/2020 16:15:00,0.578
21/12/2020 16:30:00,0.578
21/12/2020 16:45:00,0.578
21/12/2020 17:00:00,0.578
21/12/2020 17:15:00,0.578
21/12/2020 17:30:00,0.578
21/12/2020 17:45:00,0.579
21/12/2020 18:00:00,0.578
21/12/2020 18:15:00,0.579
21/12/2020 18:30:00,0.58
21/12/2020 18:45:00,0.58
21/12/2020 19:00:00,0.579
21/12/2020 19:15:00,0.58
21/12/2020 19:30:00,0.58
21/12/2020 19:45:00,0.581
21/12/2020 20:00:00,0.581
21/12/2020 20:15:00,0.581
21/12/2020 20:30:00,0.581
21/12/2020 20:45:00,0.584
21/12/2020 21:00:00,0.585
21/12/2020 21:15:00,0.584
21/12/2020 21:30:00,0.584
21/12/2020 21:45:00,0.584
21/12/2020 22:00:00,0.584
21/12/2020 22:15:00,0.581
21/12/2020 22:30:00,0.582
21/12/2020 22:45:00,0.58
21/12/2020 23:00:00,0.581
21/12/2020 23:15:00,0.581
21/12/2020 23:30:00,0.582
21/12/2020 23:45:00,0.581
22/12/2020 00:00:00,0.579
22/12/2020 00:15:00,0.58
22/12/2020 00:30:00,0.581
22/12/2020 00:45:00,0.58
22/12/2020 01:00:00,0.58
22/12/2020 01:15:00,0.579
22/12/2020 01:30:00,0.579
22/12/2020 01:45:00,0.579
22/12/2020 02:00:00,0.579
22/12/2020 02:15:00,0.579
22/12/2020 02:30:00,0.58
22/12/2020 02:45:00,0.581
22/12/2020 03:00:00,0.581
22/12/2020 03:15:00,0.581
22/12/2020 03:30:00,0.581
22/12/2020 03:45:00,0.582
22/12/2020 04:00:00,0.581
22/12/2020 04:15:00,0.58
22/12/2020 04:30:00,0.579
22/12/2020 04:45:00,0.579
22/12/2020 05:00:00,0.579
22/12/2020 05:15:00,0.58
22/12/2020 05:30:00,0.581
22/12/2020 05:45:00,0.583
22/12/2020 06:00:00,0.582
22/12/2020 06:15:00,0.58
22/12/2020 06:30:00,0.579
22/12/2020 06:45:00,0.579
22/12/2020 07:00:00,0.579
22/12/2020 07:15:00,0.577
22/12/2020 07:30:00,0.576
22/12/2020 07:45:00,0.575
22/12/2020 08:00:00,0.573
22/12/2020 08:15:00,0.572
22/12/2020 08:30:00,0.572
22/12/2020 08:45:00,0.571
22/12/2020 09:00:00,0.571
22/12/2020 09:15:00,0.571
22/12/2020 09:30:00,0.572
22/12/2020 09:45:00,0.572
22/12/2020 10:00:00,0.571
22/12/2020 10:15:00,0.572
22/12/2020 10:30:00,0.571
22/12/2020 10:45:00,0.571
22/12/2020 11:00:00,0.571
22/12/2020 11:15:00,0.569
22/12/2020 11:30:00,0.569
22/12/2020 11:45:00,0.567
22/12/2020 12:00:00,0.567
22/12/2020 12:15:00,0.567
22/12/2020 12:30:00,0.568
22/12/2020 12:45:00,0.567
22/12/2020 13:00:00,0.567
22/12/2020 13:15:00,0.567
22/12/2020 13:30:00,0.566
22/12/2020 13:45:00,0.566
22/12/2020 14:00:00,0.564
22/12/2020 14:15:00,0.564
22/12/2020 14:30:00,0.564
22/12/2020 14:45:00,0.563
22/12/2020 15:00:00,0.563
22/12/2020 15:15:00,0.563
22/12/2020 15:30:00,0.562
22/12/2020 15:45:00,0.562
22/12/2020 16:00:00,0.561
22/12/2020 16:15:00,0.561
22/12/2020 16:30:00,0.56
22/12/2020 16:45:00,0.559
22/12/2020 17:00:00,0.559
22/12/2020 17:15:00,0.559
22/12/2020 17:30:00,0.558
22/12/2020 17:45:00,0.558
22/12/2020 18:00:00,0.558
22/12/2020 18:15:00,0.557
22/12/2020 18:30:00,0.556
22/12/2020 18:45:00,0.555
22/12/2020 19:00:00,0.555
22/12/2020 19:15:00,0.554
22/12/2020 19:30:00,0.553
22/12/2020 19:45:00,0.552
22/12/2020 20:00:00,0.552
22/12/2020 20:15:00,0.552
22/12/2020 20:30:00,0.551
22/12/2020 20:45:00,0.55
22/12/2020 21:00:00,0.55
22/12/2020 21:15:00,0.55
22/12/2020 21:30:00,0.549
22/12/2020 21:45:00,0.549
22/12/2020 22:00:00,0.548
22/12/2020 22:15:00,0.548
22/12/2020 22:30:00,0.547
22/12/2020 22:45:00,0.547
22/12/2020 23:00:00,0.546
22/12/2020 23:15:00,0.546
22/12/2020 23:30:00,0.545
22/12/2020 23:45:00,0.544
23/12/2020 00:00:00,0.544
23/12/2020 00:15:00,0.543
23/12/2020 00:30:00,0.543
23/12/2020 00:45:00,0.542
23/12/2020 01:00:00,0.541
23/12/2020 01:15:00,0.541
23/12/2020 01:30:00,0.541
23/12/2020 01:45:00,0.54
23/12/2020 02:00:00,0.539
23/12/2020 02:15:00,0.539
23/12/2020 02:30:00,0.538
23/12/2020 02:45:00,0.538
23/12/2020 03:00:00,0.537
23/12/2020 03:15:00,0.536
23/12/2020 03:30:00,0.536
23/12/2020 03:45:00,0.535
23/12/2020 04:00:00,0.536
23/12/2020 04:15:00,0.535
23/12/2020 04:30:00,0.534
23/12/2020 04:45:00,0.534
23/12/2020 05:00:00,0.533
23/12/2020 05:15:00,0.533
23/12/2020 05:30:00,0.532
23/12/2020 05:45:00,0.532
23/12/2020 06:00:00,0.531
23/12/2020 06:15:00,0.53
23/12/2020 06:30:00,0.53
23/12/2020 06:45:00,0.53
23/12/2020 07:00:00,0.53
23/12/2020 07:15:00,0.528
23/12/2020 07:30:00,0.528
23/12/2020 07:45:00,0.528
23/12/2020 08:00:00,0.528
23/12/2020 08:15:00,0.526
23/12/2020 08:30:00,0.526
23/12/2020 08:45:00,0.526
23/12/2020 09:00:00,0.525
23/12/2020 09:15:00,0.525
23/12/2020 09:30:00,0.525
23/12/2020 09:45:00,0.524
23/12/2020 10:00:00,0.524
23/12/2020 10:15:00,0.524
23/12/2020 10:30:00,0.524
23/12/2020 10:45:00,0.523
23/12/2020 11:00:00,0.522
23/12/2020 11:15:00,0.521
23/12/2020 11:30:00,0.521
23/12/2020 11:45:00,0.52
23/12/2020 12:00:00,0.52
23/12/2020 12:15:00,0.52
23/12/2020 12:30:00,0.519
23/12/2020 12:45:00,0.519
23/12/2020 13:00:00,0.518
23/12/2020 13:15:00,0.518
23/12/2020 13:30:00,0.517
23/12/2020 13:45:00,0.516
23/12/2020 14:00:00,0.515
23/12/2020 14:15:00,0.514
23/12/2020 14:30:00,0.514
23/12/2020 14:45:00,0.515
23/12/2020 15:00:00,0.514
23/12/2020 15:15:00,0.514
23/12/2020 15:30:00,0.514
23/12/2020 15:45:00,0.514
23/12/2020 16:00:00,0.513
23/12/2020 16:15:00,0.513
23/12/2020 16:30:00,0.513
23/12/2020 16:45:00,0.513
23/12/2020 17:00:00,0.513
23/12/2020 17:15:00,0.511
23/12/2020 17:30:00,0.51
23/12/2020 17:45:00,0.51
23/12/2020 18:00:00,0.511
23/12/2020 18:15:00,0.511
23/12/2020 18:30:00,0.51
23/12/2020 18:45:00,0.51
23/12/2020 19:00:00,0.509
23/12/2020 19:15:00,0.509
23/12/2020 19:30:00,0.509
23/12/2020 19:45:00,0.509
23/12/2020 20:00:00,0.507
23/12/2020 20:15:00,0.507
23/12/2020 20:30:00,0.506
23/12/2020 20:45:00,0.506
23/12/2020 21:00:00,0.506
23/12/2020 21:15:00,0.505
23/12/2020 21:30:00,0.504
23/12/2020 21:45:00,0.504
23/12/2020 22:00:00,0.505
23/12/2020 22:15:00,0.503
23/12/2020 22:30:00,0.503
23/12/2020 22:45:00,0.502
23/12/2020 23:00:00,0.502
23/12/2020 23:15:00,0.502
23/12/2020 23:30:00,0.502
23/12/2020 23:45:00,0.501
